Weather History for Ha Noi, Viet Nam

Change the Weather History Date:

Sunday, December 9, 2012

  Actual Average Record
Temperature  
Mean Temperature 66 °F -  
Max Temperature 68 °F 68 °F 80 °F (2007)
Min Temperature 64 °F 58 °F 48 °F (2004)
Cooling Degree Days 1    
Growing Degree Days 16 (Base 50)    
Moisture  
Dew Point 59 °F    
Average Humidity 77    
Maximum Humidity 88    
Minimum Humidity 68    
Precipitation  
Precipitation 0.00 in - - ()
Sea Level Pressure  
Sea Level Pressure 29.95 in    
Wind  
Wind Speed 2 mph ()    
Max Wind Speed 8 mph    
Max Gust Speed -    
Visibility 2.1 miles    
Events      
Averages and records for this station are not official NWS values.
T = Trace of Precipitation, MM = Missing Value Source: Averaged Metar Reports

Daily Weather History Graph

Daily Weather History Graph

Search for Another Location

Airport:

Trip Planner

Search our weather history database for the weather conditions in past years. The results will help you decide how hot, cold, wet, or windy it might be!

Date:

Astronomy

Dec. 09, 2012 Rise Set
Actual Time 6:22 AM ICT 5:15 PM ICT
Civil Twilight 5:58 AM ICT 5:39 PM ICT
Nautical Twilight 5:31 AM ICT 6:07 PM ICT
Astronomical Twilight 5:03 AM ICT 6:34 PM ICT
Moon 1:45 AM ICT (12/9) 1:38 PM ICT (12/9)
Length of Visible Light 11h 40m
Length of Day
10h 52m
Waning Crescent, 23% of the Moon is Illuminated
Dec 9
Waning Crescent
Dec 13
New
Dec 20
First Quarter
Dec 28
Full
Jan 5
Last Quarter

Hourly Weather History & Observations

Time (ICT) Temp. Dew Point Humidity Pressure Visibility Wind Dir Wind Speed Gust Speed Precip Events Conditions
12:00 AM 64.4 °F 60.8 °F 88% 30.01 in 1.7 mi WNW 1.2 mph - N/A   Mostly Cloudy
12:30 AM 64.4 °F 60.8 °F 88% 29.98 in 1.7 mi WNW 2.3 mph - N/A   Mostly Cloudy
1:00 AM 64.4 °F 60.8 °F 88% 29.98 in 1.7 mi West 2.3 mph - N/A   Mostly Cloudy
1:30 AM 64.4 °F 60.8 °F 88% 29.98 in 1.8 mi Variable 3.5 mph - N/A   Mostly Cloudy
2:00 AM 64.4 °F 60.8 °F 88% 29.98 in 1.8 mi WNW 2.3 mph - N/A   Mostly Cloudy
2:30 AM 64.4 °F 59.0 °F 83% 29.98 in - Variable 1.2 mph - N/A   Mostly Cloudy
3:00 AM 64.4 °F 59.0 °F 83% 29.98 in - Calm Calm - N/A   Mostly Cloudy
3:30 AM 64.4 °F 59.0 °F 83% 29.95 in - NE 2.3 mph - N/A   Mostly Cloudy
4:00 AM 64.4 °F 59.0 °F 83% 29.95 in 3.1 mi ENE 2.3 mph - N/A   Mostly Cloudy
4:30 AM 66.2 °F 57.2 °F 73% 29.95 in 3.1 mi Variable 2.3 mph - N/A   Mostly Cloudy
5:00 AM 64.4 °F 59.0 °F 83% 29.92 in - NE 8.1 mph - N/A   Mostly Cloudy
5:30 AM 64.4 °F 57.2 °F 77% 29.95 in 2.2 mi NE 5.8 mph - N/A   Mostly Cloudy
6:00 AM 64.4 °F 57.2 °F 77% 29.95 in - NW 4.6 mph - N/A   Mostly Cloudy
6:30 AM 64.4 °F 57.2 °F 77% 29.98 in - North 3.5 mph - N/A   Mostly Cloudy
7:00 AM 64.4 °F 57.2 °F 77% 29.98 in - NNE 2.3 mph - N/A   Mostly Cloudy
7:30 AM 66.2 °F 57.2 °F 73% 30.01 in - West 1.2 mph - N/A   Mostly Cloudy
8:00 AM 66.2 °F 57.2 °F 73% 30.01 in - Calm Calm - N/A   Mostly Cloudy
8:30 AM 66.2 °F 57.2 °F 73% 30.01 in 2.5 mi Calm Calm - N/A   Mostly Cloudy
9:00 AM 66.2 °F 57.2 °F 73% 30.04 in 2.5 mi WNW 2.3 mph - N/A   Mostly Cloudy
9:30 AM 66.2 °F 57.2 °F 73% 30.04 in 2.2 mi West 2.3 mph - N/A   Mostly Cloudy
10:00 AM 66.2 °F 59.0 °F 78% 30.01 in 2.2 mi Variable 1.2 mph - N/A   Mostly Cloudy
10:30 AM 66.2 °F 59.0 °F 78% 30.01 in 1.9 mi West 2.3 mph - N/A   Mostly Cloudy
11:00 AM 66.2 °F 59.0 °F 78% 30.01 in 1.6 mi NW 2.3 mph - N/A   Mostly Cloudy
11:30 AM 66.2 °F 57.2 °F 73% 29.98 in 2.2 mi Variable 2.3 mph - N/A   Mostly Cloudy
12:00 PM 68.0 °F 57.2 °F 68% 29.98 in 2.5 mi Variable 1.2 mph - N/A   Mostly Cloudy
12:30 PM 68.0 °F 57.2 °F 68% 29.95 in 2.5 mi Variable 2.3 mph - N/A   Mostly Cloudy
1:00 PM 68.0 °F 57.2 °F 68% 29.92 in 2.5 mi Variable 2.3 mph - N/A   Mostly Cloudy
1:30 PM 68.0 °F 59.0 °F 73% 29.92 in 2.2 mi Variable 1.2 mph - N/A   Mostly Cloudy
2:00 PM 68.0 °F 59.0 °F 73% 29.89 in 2.2 mi Variable 2.3 mph - N/A   Mostly Cloudy
2:30 PM 68.0 °F 59.0 °F 73% 29.89 in 2.2 mi Variable 2.3 mph - N/A   Mostly Cloudy
3:00 PM 68.0 °F 59.0 °F 73% 29.89 in 2.2 mi Variable 1.2 mph - N/A   Mostly Cloudy
3:30 PM 68.0 °F 59.0 °F 73% 29.89 in 2.2 mi Calm Calm - N/A   Mostly Cloudy
4:00 PM 68.0 °F 59.0 °F 73% 29.89 in - NNE 3.5 mph - N/A   Mostly Cloudy
4:30 PM 68.0 °F 59.0 °F 73% 29.89 in - NNE 4.6 mph - N/A   Mostly Cloudy
5:00 PM 68.0 °F 59.0 °F 73% 29.89 in 1.7 mi NNE 4.6 mph - N/A   Mostly Cloudy
5:30 PM 66.2 °F 59.0 °F 78% 29.89 in 1.6 mi NE 3.5 mph - N/A   Mostly Cloudy
6:00 PM 66.2 °F 59.0 °F 78% 29.89 in - NE 3.5 mph - N/A   Mostly Cloudy
6:30 PM 66.2 °F 59.0 °F 78% 29.89 in - NE 3.5 mph - N/A   Mostly Cloudy
7:00 PM 66.2 °F 59.0 °F 78% 29.92 in - NE 3.5 mph - N/A   Mostly Cloudy
7:30 PM 66.2 °F 59.0 °F 78% 29.92 in - Calm Calm - N/A   Mostly Cloudy
8:00 PM 68.0 °F 59.0 °F 73% 29.92 in - Variable 2.3 mph - N/A   Mostly Cloudy
8:30 PM 66.2 °F 59.0 °F 78% 29.92 in - NE 3.5 mph - N/A   Mostly Cloudy
9:00 PM 66.2 °F 59.0 °F 78% 29.92 in - NE 4.6 mph - N/A   Mostly Cloudy
9:30 PM 66.2 °F 59.0 °F 78% 29.95 in - NE 5.8 mph - N/A   Mostly Cloudy
10:00 PM 66.2 °F 59.0 °F 78% 29.95 in - NE 5.8 mph - N/A   Mostly Cloudy
10:30 PM 66.2 °F 59.0 °F 78% 29.95 in - Variable 2.3 mph - N/A   Mostly Cloudy
11:00 PM 66.2 °F 60.8 °F 83% 29.95 in 1.9 mi Variable 1.2 mph - N/A   Light Drizzle
11:30 PM 66.2 °F 60.8 °F 83% 29.92 in 1.2 mi Variable 2.3 mph - N/A   Light Drizzle